THA602 ZSPD-RKSI

Flight info

Callsign THA602
Flight time N/A
Altitude 35000
Route LAM82D/16R LAMEN A593 SADLI Y590 ELGEP Y722 OLMEN OLMEN2H
Aircraft A21N/M-SDE2E3FGHIRWXY/LB1

Departure

Time N/A
Airport Shanghai Pudong International Airport (ZSPD)

Arrival

Time 2026-05-05 15:18
Airport Incheon International Airport (RKSI)
Time Latitude Longitude Altitude Speed Heading
2026-05-05 14:28 33.03642 126.47391 35154 ft 503 kts 14°
2026-05-05 14:28 33.06944 126.48811 35154 ft 503 kts 14°
2026-05-05 14:29 33.13544 126.51643 35152 ft 505 kts 13°
2026-05-05 14:29 33.20185 126.54498 35147 ft 506 kts 14°
2026-05-05 14:30 33.26788 126.57353 35149 ft 504 kts 14°
2026-05-05 14:30 33.33379 126.60205 35147 ft 504 kts 14°
2026-05-05 14:31 33.39961 126.63057 35145 ft 501 kts 14°
2026-05-05 14:31 33.46508 126.65909 35144 ft 500 kts 14°
2026-05-05 14:32 33.53008 126.68725 35140 ft 498 kts 11°
2026-05-05 14:32 33.59698 126.70232 35144 ft 484 kts
2026-05-05 14:33 33.66383 126.71038 35140 ft 482 kts 358°
2026-05-05 14:33 33.73053 126.71704 35140 ft 481 kts 358°
2026-05-05 14:34 33.79732 126.72376 35149 ft 479 kts 359°
2026-05-05 14:34 33.86372 126.73067 35150 ft 479 kts 359°
2026-05-05 14:35 33.93011 126.73762 35153 ft 479 kts 359°
2026-05-05 14:35 33.99646 126.74456 35153 ft 477 kts 359°
2026-05-05 14:36 34.06222 126.75122 35149 ft 479 kts 359°
2026-05-05 14:36 34.12875 126.75814 35152 ft 480 kts 359°
2026-05-05 14:37 34.19511 126.76528 35148 ft 477 kts 359°
2026-05-05 14:37 34.26119 126.77234 35146 ft 476 kts 359°
2026-05-05 14:38 34.32724 126.77934 35150 ft 476 kts 359°
2026-05-05 14:38 34.39318 126.78635 35149 ft 475 kts 360°
2026-05-05 14:39 34.45898 126.79336 35145 ft 474 kts 360°
2026-05-05 14:39 34.52464 126.80036 35147 ft 474 kts 360°
2026-05-05 14:40 34.58995 126.80734 35147 ft 473 kts
2026-05-05 14:40 34.65544 126.81438 35143 ft 472 kts
2026-05-05 14:41 34.72086 126.82138 35144 ft 472 kts
2026-05-05 14:41 34.78628 126.82837 35143 ft 471 kts
2026-05-05 14:42 34.85153 126.83538 35142 ft 470 kts
2026-05-05 14:42 34.91676 126.84241 35145 ft 470 kts
2026-05-05 14:43 34.98197 126.84944 35146 ft 470 kts
2026-05-05 14:43 35.04722 126.85650 35145 ft 470 kts
2026-05-05 14:44 35.11241 126.86356 35148 ft 470 kts
2026-05-05 14:44 35.17712 126.87058 35148 ft 469 kts
2026-05-05 14:45 35.24210 126.87764 35147 ft 468 kts
2026-05-05 14:45 35.30689 126.88467 35145 ft 468 kts
2026-05-05 14:46 35.37179 126.89175 35139 ft 467 kts
2026-05-05 14:46 35.43647 126.89884 35140 ft 466 kts
2026-05-05 14:47 35.50112 126.90589 35137 ft 466 kts
2026-05-05 14:47 35.56575 126.91295 35138 ft 465 kts
2026-05-05 14:48 35.62964 126.91994 35131 ft 463 kts
2026-05-05 14:48 35.69374 126.92696 35129 ft 463 kts
2026-05-05 14:49 35.75794 126.93400 35134 ft 462 kts
2026-05-05 14:49 35.82189 126.94105 35129 ft 461 kts
2026-05-05 14:50 35.88580 126.94808 35129 ft 461 kts
2026-05-05 14:50 35.94967 126.95512 35128 ft 460 kts
2026-05-05 14:51 36.01328 126.96216 35122 ft 458 kts
2026-05-05 14:51 36.07670 126.96919 35124 ft 457 kts
2026-05-05 14:52 36.13969 126.97617 35120 ft 456 kts
2026-05-05 14:52 36.20269 126.98318 35112 ft 453 kts
2026-05-05 14:53 36.26549 126.99018 35113 ft 453 kts
2026-05-05 14:53 36.32851 126.99710 35112 ft 457 kts
2026-05-05 14:54 36.39185 127.00236 35103 ft 453 kts 357°
2026-05-05 14:54 36.45486 127.00140 35102 ft 452 kts 355°
2026-05-05 14:55 36.51780 126.99917 35103 ft 452 kts 355°
2026-05-05 14:55 36.58043 126.99671 35089 ft 449 kts 355°
2026-05-05 14:56 36.64247 126.99441 35082 ft 449 kts 355°
2026-05-05 14:56 36.70472 126.99067 35085 ft 445 kts 347°
2026-05-05 14:57 36.73426 126.98026 35077 ft 440 kts 333°
2026-05-05 14:57 36.76011 126.96066 35079 ft 434 kts 319°
2026-05-05 14:57 36.80356 126.90856 35079 ft 434 kts 314°
2026-05-05 14:58 36.84599 126.85466 34717 ft 435 kts 314°
2026-05-05 14:58 36.86715 126.82786 33799 ft 434 kts 314°
2026-05-05 14:58 36.88847 126.80092 32452 ft 437 kts 315°
2026-05-05 14:59 36.90997 126.77376 31137 ft 441 kts 315°
2026-05-05 14:59 36.93164 126.74639 29770 ft 444 kts 315°
2026-05-05 14:59 36.95344 126.71882 28204 ft 447 kts 315°
2026-05-05 14:59 36.97537 126.69111 26590 ft 451 kts 315°
2026-05-05 15:00 36.99747 126.66297 24915 ft 456 kts 313°
2026-05-05 15:00 37.01109 126.64285 23820 ft 459 kts 306°
2026-05-05 15:00 37.02984 126.59500 21587 ft 459 kts 285°
2026-05-05 15:00 37.03703 126.55685 20209 ft 452 kts 286°
2026-05-05 15:01 37.04789 126.52039 18836 ft 445 kts 297°
2026-05-05 15:01 37.06513 126.48869 17331 ft 438 kts 312°
2026-05-05 15:01 37.08788 126.46411 15919 ft 429 kts 327°
2026-05-05 15:01 37.11326 126.44492 14575 ft 422 kts 327°
2026-05-05 15:02 37.13745 126.42470 13350 ft 414 kts 324°
2026-05-05 15:02 37.16065 126.40411 12543 ft 405 kts 323°
2026-05-05 15:02 37.18341 126.38331 12108 ft 404 kts 321°
2026-05-05 15:02 37.20385 126.35951 11834 ft 400 kts 309°
2026-05-05 15:03 37.21917 126.33081 11588 ft 394 kts 294°
2026-05-05 15:03 37.22820 126.29860 11343 ft 391 kts 280°
2026-05-05 15:03 37.23169 126.26495 11106 ft 388 kts 274°
2026-05-05 15:03 37.23518 126.23140 10852 ft 388 kts 281°
2026-05-05 15:04 37.24386 126.19949 10616 ft 387 kts 295°
2026-05-05 15:04 37.25869 126.17135 10374 ft 388 kts 309°
2026-05-05 15:04 37.27857 126.14853 10147 ft 387 kts 321°
2026-05-05 15:04 37.30025 126.12862 9906 ft 384 kts 322°
2026-05-05 15:05 37.34101 126.09264 9397 ft 328 kts 322°
2026-05-05 15:05 37.35888 126.07676 9109 ft 304 kts 322°
2026-05-05 15:05 37.37574 126.06172 8629 ft 290 kts 321°
2026-05-05 15:06 37.39194 126.04725 8060 ft 282 kts 321°
2026-05-05 15:06 37.40875 126.03450 7643 ft 282 kts 332°
2026-05-05 15:06 37.42741 126.02708 7395 ft 283 kts 348°
2026-05-05 15:06 37.44714 126.02669 7157 ft 286 kts
2026-05-05 15:07 37.45998 126.03055 6998 ft 288 kts 17°
2026-05-05 15:07 37.48304 126.04793 6682 ft 293 kts 41°
2026-05-05 15:07 37.49527 126.06798 6519 ft 294 kts 64°
2026-05-05 15:07 37.49971 126.09275 6413 ft 291 kts 93°
2026-05-05 15:08 37.49461 126.11693 6292 ft 285 kts 122°
2026-05-05 15:08 37.48652 126.13008 6204 ft 280 kts 141°
2026-05-05 15:08 37.47012 126.14214 6084 ft 271 kts 163°
2026-05-05 15:08 37.45238 126.15044 5964 ft 273 kts 159°
2026-05-05 15:09 37.43627 126.16260 5840 ft 275 kts 144°
2026-05-05 15:09 37.42098 126.17722 5711 ft 275 kts 146°
2026-05-05 15:09 37.40551 126.19128 5585 ft 274 kts 147°
2026-05-05 15:09 37.39004 126.20524 5442 ft 274 kts 146°
2026-05-05 15:10 37.37622 126.22172 5202 ft 276 kts 128°
2026-05-05 15:10 37.36808 126.24352 4955 ft 279 kts 103°
2026-05-05 15:10 37.36806 126.26778 4816 ft 280 kts 76°
2026-05-05 15:10 37.37583 126.29010 4679 ft 282 kts 57°
2026-05-05 15:11 37.38836 126.30902 4561 ft 282 kts 37°
2026-05-05 15:11 37.40541 126.32029 4426 ft 277 kts 10°
2026-05-05 15:11 37.42427 126.32113 4303 ft 270 kts 343°
2026-05-05 15:11 37.44138 126.31217 4185 ft 266 kts 324°
2026-05-05 15:12 37.45669 126.29903 4043 ft 267 kts 320°
2026-05-05 15:12 37.47170 126.28520 3926 ft 267 kts 319°
2026-05-05 15:12 37.48649 126.27161 3809 ft 267 kts 320°
2026-05-05 15:12 37.50157 126.25788 3670 ft 267 kts 320°
2026-05-05 15:13 37.51671 126.24422 3559 ft 267 kts 320°
2026-05-05 15:13 37.53187 126.23062 3434 ft 268 kts 321°
2026-05-05 15:13 37.54857 126.21978 3298 ft 274 kts 340°
2026-05-05 15:13 37.56765 126.21821 3171 ft 278 kts
2026-05-05 15:14 37.58503 126.22806 3052 ft 288 kts 38°
2026-05-05 15:14 37.59886 126.24687 2989 ft 291 kts 53°
2026-05-05 15:14 37.61026 126.26740 2971 ft 281 kts 60°
2026-05-05 15:14 37.61703 126.29003 2977 ft 274 kts 87°
2026-05-05 15:15 37.61408 126.31299 2985 ft 264 kts 119°
2026-05-05 15:15 37.60446 126.33187 2933 ft 248 kts 135°
2026-05-05 15:15 37.59183 126.34544 2714 ft 232 kts 149°
2026-05-05 15:15 37.57844 126.35629 2363 ft 225 kts 150°
2026-05-05 15:16 37.56567 126.36722 2034 ft 219 kts 149°
2026-05-05 15:16 37.55349 126.37819 1747 ft 210 kts 148°
2026-05-05 15:16 37.54209 126.38840 1472 ft 192 kts 148°
2026-05-05 15:16 37.53178 126.39754 1234 ft 174 kts 148°
2026-05-05 15:17 37.52231 126.40594 1001 ft 156 kts 147°
2026-05-05 15:17 37.51399 126.41333 784 ft 141 kts 146°
2026-05-05 15:17 37.50615 126.42031 602 ft 136 kts 144°
2026-05-05 15:17 37.49844 126.42719 412 ft 137 kts 144°
2026-05-05 15:18 37.49068 126.43410 233 ft 137 kts 144°
2026-05-05 15:18 37.48287 126.44102 53 ft 133 kts 144°
2026-05-05 15:18 37.47612 126.44710 27 ft 97 kts 144°
2026-05-05 15:18 37.47206 126.45068 28 ft 45 kts 144°
2026-05-05 15:19 37.47025 126.45228 28 ft 29 kts 145°
2026-05-05 15:19 37.46867 126.45373 27 ft 27 kts 142°
2026-05-05 15:19 37.46717 126.45503 25 ft 26 kts 147°
2026-05-05 15:19 37.46563 126.45583 29 ft 23 kts 168°
2026-05-05 15:20 37.46412 126.45610 30 ft 21 kts 173°
2026-05-05 15:20 37.46278 126.45650 26 ft 19 kts 155°
2026-05-05 15:20 37.46169 126.45727 29 ft 17 kts 147°
2026-05-05 15:20 37.46071 126.45808 27 ft 16 kts 147°
2026-05-05 15:21 37.45995 126.45810 28 ft 8 kts 233°
2026-05-05 15:21 37.45959 126.45734 26 ft 11 kts 236°
2026-05-05 15:21 37.45915 126.45652 27 ft 11 kts 235°
2026-05-05 15:21 37.45869 126.45573 27 ft 11 kts 232°
2026-05-05 15:22 37.45817 126.45504 28 ft 10 kts 212°
2026-05-05 15:22 37.45760 126.45463 27 ft 9 kts 218°
2026-05-05 15:22 37.45722 126.45412 27 ft 8 kts 230°
2026-05-05 15:22 37.45689 126.45359 25 ft 8 kts 232°
2026-05-05 15:23 37.45655 126.45304 25 ft 9 kts 230°
2026-05-05 15:23 37.45609 126.45251 30 ft 7 kts 208°
2026-05-05 15:23 37.45571 126.45247 27 ft 5 kts 169°
2026-05-05 15:23 37.45541 126.45259 28 ft 5 kts 161°
2026-05-05 15:24 37.45510 126.45272 25 ft 5 kts 161°
2026-05-05 15:24 37.45474 126.45287 25 ft 8 kts 162°
2026-05-05 15:24 37.45385 126.45322 25 ft 14 kts 162°
2026-05-05 15:24 37.45292 126.45356 25 ft 12 kts 176°
2026-05-05 15:25 37.45215 126.45355 25 ft 10 kts 181°
2026-05-05 15:25 37.45148 126.45351 25 ft 9 kts 179°
2026-05-05 15:25 37.45140 126.45351 27 ft 0 kts 180°